Location: Kalberh�ni
(46.4610°N, 7.2453°E)
Time: 06:59:03
(UTC+00:00)

deb Kosmos-2227 - Pass Details

Date: 17 August 2022
Orbit: 774 x 865 km, 70.9° (Epoch: 26 September)

Event Time Altitude Azimuth Distance (km) Brightness Sun altitude
Rises 20:53:02 0° 340° (NNW) 3,337 ? -20.1°
Reaches altitude 10° 20:56:16 10° 360° (N) 2,421 ? -20.5°
Maximum altitude 21:00:00 18° 42° (NE) 1,933 ? -20.9°
Enters shadow 21:02:40 13° 75° (ENE) 2,213 ? -21.2°
